Simultaneous Nadir Overpasses (SNOs) Predictions

Prediction of SNOs between FY3D and NOAA-19 Satellite Orbit:

Table of predicted SNOs for the next 14.0 days since TLE Epoch: 6/6/2020
Index Date (FY3D) Time (FY3D) Lat,Lon (FY3D) SZA (FY3D ) Date (NOAA-19) Time (NOAA-19) Lat,Lon (NOAA-19) SZA (NOAA-19 ) Distance(km) Time Diff (sec)
1 06/14/2020 12:43:04 -79.38, 137.12 122.19 06/14/2020 12:41:59 -79.37, 137.08 122.17 1.56 65
2 06/14/2020 13:33:49 79.38, -55.61 57.82 06/14/2020 13:32:57 79.39, -55.48 57.83 2.68 52
3 06/14/2020 14:24:33 -79.38, 111.77 122.20 06/14/2020 14:23:59 -79.38, 111.75 122.17 1.09 34
4 06/14/2020 15:15:18 79.38, -80.97 57.82 06/14/2020 15:14:58 79.37, -81.10 57.83 2.86 20
5 06/14/2020 16:06:02 -79.37, 86.42 122.20 06/14/2020 16:05:59 -79.40, 86.41 122.18 3.17 3
6 06/14/2020 16:56:47 79.38,-106.32 57.81 06/14/2020 16:56:58 79.39,-106.44 57.83 2.64 11
7 06/14/2020 17:47:32 -79.40, 60.80 122.15 06/14/2020 17:48:00 -79.39, 60.80 122.18 1.60 28
8 06/14/2020 18:38:17 79.41,-131.94 57.86 06/14/2020 18:38:58 79.41,-131.77 57.82 3.51 41
9 06/14/2020 19:29:01 -79.40, 35.44 122.16 06/14/2020 19:30:00 -79.41, 35.47 122.19 0.80 59




NCC Satellite Simultaneous Nadir Overpasses (SNOs) Prediction Service
